Regional Weather Roundup
Issued by NWS

Home | Current Version | Previous Version | Text Only | Print | Product List | Glossary Off
Versions: 1 2 3 4 5 6 7 8 9 10 11 12 13 14 15 16 17 18 19 20 21 22 23 24 25 26 27 28 29 30 31 32 33 34 35 36 37 38 39 40 41 42 43 44 45 46 47 48 49 50

000
ASUS43 KMKX 240521
RWRWI

WISCONSIN REGIONAL WEATHER ROUNDUP
NATIONAL WEATHER SERVICE MILWAUKEE/SULLIVAN WI
1200 AM CDT WED MAY 24 2017

NOTE: "FAIR" INDICATES FEW OR NO CLOUDS BELOW 12,000 FEET WITH NO
SIGNIFICANT WEATHER AND/OR OBSTRUCTIONS TO VISIBILITY.

WIZ001-002-006>008-014>016-023>028-240600-
NORTHWEST WISCONSIN

CITY           SKY/WX    TMP DP  RH WIND       PRES   REMARKS
SUPERIOR ARPT  NOT AVBL
ASHLAND        CLOUDY    46  43  89 N7        29.87F
HAYWARD        PTCLDY    43  40  89 N5        29.84F
SIREN          CLOUDY    48  43  81 NE7       29.85F
CUMBERLAND     CLEAR     45  41  87 N8        29.82F
RICE LAKE      CLEAR     47  43  87 N8        29.83F
CHETEK         CLOUDY    47  45  90 N7        29.81F
LADYSMITH      CLOUDY    46  44  91 N8        29.83S
EAU CLAIRE     CLOUDY    52  44  74 N8        29.78S
MENOMONIE      CLOUDY    52  45  76 N9        29.79F
NEW RICHMOND   MOCLDY    47  42  83 N8        29.82F
OSCEOLA        CLEAR     48  44  87 N3        29.86F
$$

WIZ003>005-009-010-017-018-240600-
NORTH CENTRAL WISCONSIN

CITY           SKY/WX    TMP DP  RH WIND       PRES   REMARKS
MANITOWISH WTR CLOUDY    46  46  98 N5        29.82S
ARBOR VITAE    PTCLDY    47  44  89 NE6       29.81S
WOODRUFF       PTCLDY    47  44  89 NE6       29.81S
RHINELANDER    CLOUDY    50  44  80 NE7       29.80F
EAGLE RIVER    MOCLDY    46  42  86 N5        29.81S
LAND O LAKES   CLOUDY    46  42  86 NE7       29.83S
PHILLIPS       CLOUDY    48  45  90 N10       29.80S
TOMAHAWK       CLOUDY    49  43  80 NE3       29.80S
MEDFORD        LGT RAIN  49  45  85 NE7       29.78S
MERRILL        RAIN      50  49  99 CALM      29.79S
$$

WIZ029-030-035-036-043>047-240600-
CENTRAL WISCONSIN

CITY           SKY/WX    TMP DP  RH WIND       PRES   REMARKS
WAUSAU         LGT RAIN  50  48  93 NE5       29.76S
MOSINEE        LGT RAIN  48  48 100 N6        29.77F
MARSHFIELD     CLOUDY    49  46  90 NE3       29.76F
STEVENS POINT  RAIN      47  47 100 NE6       29.76S
WAUPACA        DRIZZLE   52  50  95 NE3       29.75F
WAUTOMA        CLOUDY    49  47  93 NE6       29.74F
WISC RAPIDS    CLOUDY    50  47  89 NE7       29.76F
CAMP DOUGLAS   CLOUDY    49  48  95 NE6       29.74F
$$

WIZ011>013-019>022-031-037>040-048>050-240600-
NORTHEAST WISCONSIN

CITY           SKY/WX    TMP DP  RH WIND       PRES   REMARKS
ANTIGO         DRIZZLE   48  46  95 NE7       29.78F
SHAWANO        LGT RAIN  52  49  90 NE16      29.76S
OCONTO         CLOUDY    49  47  93 NE9       29.76S
STURGEON BAY   LGT RAIN  48  47  96 N7        29.75F
GREEN BAY      CLOUDY    51  51 100 NE15G23   29.73F
MANITOWOC      CLOUDY    50  48  93 N10       29.72F
APPLETON       CLOUDY    50  48  93 NE12      29.72S
CLINTONVILLE   DRIZZLE   50  48  93 N3        29.75F
OSHKOSH        CLOUDY    51  47  86 NE13G21   29.71F
$$

WIZ032>034-041-042-053>061-240600-
SOUTHWEST WISCONSIN

CITY           SKY/WX    TMP DP  RH WIND       PRES   REMARKS
LA CROSSE      CLOUDY    53  49  86 N6        29.74F
SPARTA         CLOUDY    48  47  97 NE5       29.75F
VIROQUA        CLOUDY    50  49  97 MISG      29.73S
BOSCOBEL       CLOUDY    54  51  90 NE3       29.70F
PRAIRIE DU CHI DRIZZLE   54  49  83 N5        29.70F
PLATTEVILLE    PTCLDY    52  52 100 NE5       29.68F
$$

WIZ056-057-062-063-064-067-068-240600-
SOUTH CENTRAL WISCONSIN

CITY           SKY/WX    TMP DP  RH WIND       PRES   REMARKS
REEDSBURG      CLOUDY    49  49 100 NE8       29.72S
BARABOO/DELLS  CLOUDY    49  47  93 NE5       29.72S
LONE ROCK      CLOUDY    53  50  89 NE9       29.70S
MINERAL POINT  CLOUDY    54  54 100 NE9       29.68F
MADISON        CLOUDY    51  50  96 N10       29.70S
MIDDLETON      CLOUDY    53  53 100 NE9       29.71R
WATERTOWN      CLOUDY    50  50 100 NE6       29.70S
MONROE         FOG       52  50  93 NE5       29.68F VSB<1/4
JANESVILLE     MOCLDY    52  52 100 CALM      29.68F FOG
$$

WIZ051-052-058>065-066-070>072-240600-
SOUTHEAST WISCONSIN

CITY           SKY/WX    TMP DP  RH WIND       PRES   REMARKS
MILWAUKEE      FOG       47  46  97 N7        29.70F VSB 1/4
WAUKESHA       FOG       46  46 100 NE6       29.71S VSB 1/2
MILWAUKEE/TIMM   N/A     46  45  93 NE6       29.72S FOG
RACINE         FOG       48  47  96 N6        29.71S VSB 1
KENOSHA        CLOUDY    51  50  96 N3        29.69S FOG
FOND DU LAC    CLOUDY    51  46  83 NE9       29.72S
SHEBOYGAN      CLOUDY    49  48  97 NE14      29.71F
WEST BEND      CLOUDY    46  46 100 NE6       29.71S
JUNEAU         CLOUDY    48  47  95 NE7       29.72S
$$

LSZ147-162-240600-
LAKE SUPERIOR

STATION/POSITION TIME  TEMP    WIND        PRES    WAVE
                       AIR SEA DIR/SP/G            HT/PER
                 (UTC) (F)     (DEG/KT/KT) (MB)    (FT/S)
W MID LAKE BUOY  0450   40 37  340/  6/  6 1012.2F   0
DEVILS ISLAND    0500   44      10/  8/  9 1012.3F
SAXON HARBOR     0430   42     340/  6/  6 1011.5F
$$

LMZ867-665-643>646-240600-
LAKE MICHIGAN

STATION/POSITION TIME  TEMP    WIND        PRES    WAVE
                       AIR SEA DIR/SP/G            HT/PER
                 (UTC) (F)     (DEG/KT/KT) (MB)    (FT/S)
CHAMBERS ISLAND  0440   48     360/ 15/ 18 1007.8F
N MID LAKE BUOY  0450   43 39   50/  8/  8 1009.0F   0
NORTHPORT PIER   0440   48     360/ 12/ 13 1008.5S
KEWAUNEE LAKESHO 0454   49      20/  9/ 13 1006.5F
SHEBOYGAN LAKESH 0500   45      40/ 13/ 15 1006.3F
PORT WASHINGTON  0430   47      20/  4/  8 1007.5S
ATWATER BUOY     0409   45      10/ 14/ 16 1006.4F
MILWAUKEE LAKESH 0500   45     350/  9/ 12   N/A
S MID LAKE BUOY  0450   48 45   30/  6/  8 1005.3F   0
KENOSHA   LAKESH 0500   49      20/  6/  7 1005.8
$$

TC  - TEMPERATURE IN CELSIUS
VSB - VISIBILITY IN STATUTE MILES
WCI - WIND CHILL INDEX
HX  - HEAT INDEX




USA.gov is the U.S. government's official web portal to all federal, state and local government web resources and services.